EHI
0 0 0 0 0 0 0 0 0 0 0 0 0 0 0 0 1 2 3 3 3 2 1 2 5 6 6 5 3 2 1 0 1 2 1 0 0 0 0 0 0 0 0 0
0 0 0 0 0 0 0 0 0 0 0 0 0 0 0 0 1 2 3 3 3 2 2 4 6 7 7 6 4 2 1 0 2 3 2 0 0 0 0 0 0 0 0 1
0 0 0 0 0 0 0 0 0 0 0 0 0 0 0 0 1 2 3 3 3 2 2 5 7 8 8 8 5 3 2 2 3 4 2 1 0 0 0 0 1 1 1 2
0 0 0 0 0 0 0 0 0 0 0 0 0 0 0 0 1 2 3 3 2 1 2 4 7 7 7 7 6 4 3 3 3 4 4 2 0 0 0 1 3 3 3 3
0 0 0 0 0 0 0 0 0 0 0 0 0 0 0 0 0 1 3 3 3 1 1 3 4 5 5 5 5 4 3 3 3 5 6 5 2 0 1 3 5 6 5 4
0 0 0 0 0 0 0 0 0 0 0 0 0 0 0 0 0 1 2 3 3 2 1 2 3 3 3 4 4 2 1 2 3 4 5 6 4 2 2 4 7 7 7 7
0 0 0 0 0 0 0 0 0 0 0 0 0 0 0 0 0 0 1 2 3 3 2 3 4 4 4 4 4 2 0 2 3 3 2 2 3 3 3 5 7 8 8 8
0 0 0 0 0 0 0 0 0 0 0 0 0 0 0 0 0 0 0 1 3 3 3 3 5 6 5 4 4 3 2 2 3 3 1 1 2 3 4 6 8 8 8 8
0 0 0 0 0 0 0 0 0 0 0 0 0 0 0 0 0 0 0 1 2 4 5 5 6 7 6 4 3 3 2 2 2 2 2 2 2 3 5 6 7 6 6 7
0 0 0 0 0 0 0 0 0 0 0 0 0 0 0 0 0 0 0 1 2 4 5 6 7 7 5 3 2 1 1 1 1 1 2 3 4 5 5 6 6 5 4 4
0 0 0 0 0 0 0 0 0 0 0 0 0 0 0 0 0 0 0 1 3 4 5 6 5 5 4 2 1 0 0 0 0 0 1 2 5 6 6 6 6 4 2 2
0 0 0 0 0 0 0 0 0 0 0 0 0 0 0 0 0 1 1 2 4 5 5 5 4 3 3 1 0 0 0 0 0 0 0 2 4 6 7 6 5 2 1 2
0 0 0 0 0 0 0 0 0 0 0 0 0 0 0 0 0 1 2 3 5 6 6 5 4 4 2 0 0 0 0 0 0 0 0 1 3 7 7 6 4 2 1 2
0 0 0 0 0 0 0 0 0 0 0 0 0 0 0 0 0 1 1 3 4 5 6 6 6 5 3 1 0 0 0 0 0 0 0 1 3 5 7 6 5 3 2 2
0 0 0 0 0 0 0 0 0 0 0 0 0 0 0 0 0 0 1 1 2 3 5 6 5 4 2 1 0 0 0 0 0 0 0 1 2 4 6 6 5 4 2 2
0 0 0 0 0 0 0 0 0 0 0 0 0 0 0 0 0 0 0 0 0 1 3 4 3 2 1 0 0 0 0 0 0 0 0 1 1 3 5 6 5 4 3 3
0 0 0 0 0 0 0 0 0 0 0 0 0 0 0 0 0 0 0 0 0 0 2 3 2 1 0 0 0 0 0 0 0 0 0 0 0 1 4 6 5 3 3 3
0 0 0 0 0 0 0 0 0 0 0 0 0 0 0 0 0 0 0 0 0 1 2 3 3 1 0 0 0 0 0 0 0 0 0 0 0 0 2 4 3 3 3 3
0 0 0 0 0 0 0 0 0 0 0 0 0 0 0 0 0 0 0 0 0 1 2 3 3 2 1 0 0 0 0 0 0 0 0 0 0 0 0 1 1 2 3 3
0 0 0 0 0 0 0 0 0 0 0 0 0 0 0 0 0 0 0 0 0 0 1 3 3 2 1 0 0 0 0 0 0 0 0 0 0 0 0 0 0 1 1 2
0 0 0 0 0 0 0 0 0 0 0 0 0 0 0 0 0 0 0 0 0 0 1 3 3 3 1 1 0 0 0 0 0 0 0 0 0 0 0 0 0 0 0 1
0 0 0 0 0 0 0 0 0 0 0 0 0 0 0 0 0 0 0 0 1 1 2 3 3 3 3 2 1 0 0 0 0 0 0 0 0 0 0 0 0 0 0 0
0 0 0 0 0 0 0 0 0 0 0 0 0 0 0 0 0 0 0 0 1 2 2 2 2 2 2 2 1 0 0 0 0 0 0 0 0 0 0 0 0 0 0 0
0 0 0 0 0 0 0 0 0 0 0 0 0 0 0 0 0 0 0 0 1 1 1 1 1 1 1 1 0 0 0 0 0 0 0 0 0 0 0 0 0 0 0 0
0 0 0 0 0 0 0 0 0 0 0 0 0 0 0 0 0 0 0 0 0 0 0 0 0 0 0 0 0 0 0 0 0 0 0 0 0 0 0 0 0 0 0 0
0 0 0 0 0 0 0 0 0 0 0 0 0 0 0 0 0 0 0 0 0 0 0 0 0 0 0 0 0 0 0 0 0 0 0 0 0 0 0 0 0 0 0 0
Wind_Speed
3 3 2 2 3 4 4 4 3 1 3 2 3 3 4 5 4 4 4 4 5 6 6 6 5 4 3 3 3 4 4 3 3 2 2 2 2 2 2 2 4 4 4 4
3 2 2 3 4 5 4 4 2 2 2 2 3 3 4 5 5 4 3 3 4 3 4 6 5 4 3 3 3 4 3 3 3 2 1 1 1 1 1 2 3 3 3 3
2 1 2 3 4 5 4 4 3 3 3 4 3 4 4 5 5 5 4 3 3 3 3 5 6 4 3 3 3 3 3 3 3 3 2 2 2 1 1 1 1 2 3 3
1 3 3 4 4 6 4 4 5 5 5 4 5 3 4 6 5 4 4 4 3 3 4 5 5 5 4 3 2 3 3 3 3 3 2 2 1 1 0 1 1 1 2 2
1 3 3 3 4 6 4 5 7 9 8 6 5 4 2 4 4 4 3 4 3 2 4 5 5 5 4 3 3 2 3 3 3 3 3 2 1 1 1 1 2 1 2 2
3 3 2 4 5 5 5 8 9 9 7 7 6 4 1 1 2 4 4 3 3 3 4 4 5 4 3 3 3 2 3 3 2 2 2 2 2 1 2 2 1 1 1 2
5 4 3 3 5 4 5 6 4 4 4 3 2 2 2 3 3 5 5 4 4 4 4 4 4 4 4 3 3 3 3 2 2 2 2 1 1 1 1 1 1 1 1 1
4 3 2 2 4 5 5 6 3 4 3 2 2 1 3 5 4 5 6 5 5 5 4 4 4 4 3 3 3 3 3 2 2 2 1 1 1 1 1 1 1 1 1 1
4 1 2 2 3 6 6 4 6 6 8 6 1 3 4 5 5 5 5 5 5 5 4 4 4 4 3 3 2 2 2 2 1 1 1 1 1 1 1 1 1 1 1 1
6 4 3 4 5 6 6 6 4 4 4 4 2 1 2 4 4 5 5 4 4 4 4 4 4 3 3 3 3 2 2 2 2 1 1 1 2 2 1 1 1 1 1 1
7 6 4 4 4 4 4 5 5 4 4 3 2 1 2 3 4 4 4 4 5 4 4 4 4 3 3 3 3 2 2 1 1 1 1 2 2 1 1 1 1 1 1 1
5 5 5 5 3 3 4 4 5 4 5 4 3 1 2 3 4 3 3 4 5 4 4 4 4 4 3 2 2 2 1 1 1 1 1 2 1 1 1 1 1 1 1 1
6 5 5 3 4 4 4 4 6 6 5 5 4 1 2 4 4 4 4 3 4 4 4 4 3 3 3 2 2 2 1 1 2 1 1 2 2 1 1 1 1 1 1 1
4 6 6 5 4 3 4 5 6 6 5 4 3 2 0 2 3 3 3 3 4 4 4 3 3 2 2 2 2 2 2 1 1 1 1 2 1 1 1 1 0 0 0 1
4 7 7 6 7 6 6 7 6 6 6 6 4 2 1 2 2 3 3 4 4 3 3 2 2 2 1 1 2 2 1 1 1 1 1 1 1 1 1 0 0 0 0 1
4 7 8 8 7 6 7 7 6 6 6 6 5 3 2 2 2 2 2 3 3 2 2 1 2 1 1 1 2 1 1 1 1 1 1 1 1 1 1 0 0 0 1 1
5 6 7 7 5 7 6 4 4 3 3 4 4 3 2 2 2 2 2 3 2 2 1 1 1 1 1 1 1 1 1 1 1 1 1 1 0 0 1 1 1 1 1 1
6 7 5 6 6 7 1 2 1 2 3 3 2 3 3 2 2 2 3 2 2 2 1 1 1 1 1 1 1 1 1 1 1 1 1 1 1 1 1 1 1 1 1 1
6 6 5 4 6 5 2 2 3 2 2 3 3 2 2 2 2 2 3 3 2 2 2 1 1 1 1 1 1 1 1 0 1 1 1 1 1 1 1 1 2 2 2 2
5 5 5 5 6 5 1 2 3 2 2 3 3 3 2 2 2 1 3 3 4 4 3 2 2 2 1 1 1 1 0 1 1 0 1 1 1 1 1 1 1 2 2 2
4 5 6 6 6 3 3 3 1 1 2 3 3 3 2 2 2 2 3 3 4 3 3 3 2 2 1 1 1 0 1 1 1 1 2 2 1 1 1 1 1 1 2 2
3 3 4 4 5 3 3 2 2 3 4 4 4 4 3 2 2 3 3 3 3 3 3 3 2 2 1 1 1 1 1 1 2 2 1 1 2 2 1 1 1 1 1 2
2 2 1 2 1 2 2 1 3 4 4 4 4 3 3 2 2 2 2 2 3 3 3 2 2 1 1 1 1 1 1 1 1 1 1 1 1 1 1 1 1 1 1 1
2 3 3 3 1 1 2 3 4 4 4 4 4 3 2 2 2 2 2 2 2 2 2 2 2 1 1 1 2 1 1 1 1 1 1 1 1 2 2 1 1 1 1 1
3 3 4 5 3 1 1 3 3 3 4 4 4 3 2 1 1 1 1 1 2 2 2 2 1 1 1 1 1 1 1 1 1 1 1 1 1 1 1 1 1 1 0 1
4 4 4 4 2 3 2 2 3 3 3 3 3 2 2 1 1 1 1 1 2 2 2 1 1 1 1 1 1 1 1 1 1 1 1 1 1 1 1 1 2 2 2 2
Wind_Direction
206 220 249 296 281 278 278 273 260 197 162 193 207 206 190 191 186 176 163 165 162 161 156 148 141 135 120 109 107 99 100 91 87 85 73 59 43 32 42 43 43 30 25 32
224 233 292 286 280 278 278 281 272 215 192 219 222 216 199 181 177 167 162 172 159 142 153 142 137 133 133 126 119 115 111 106 95 79 81 94 78 49 50 40 35 30 32 25
268 339 315 290 281 279 269 287 277 258 245 239 247 237 201 174 168 162 164 156 135 137 146 146 143 136 130 134 131 130 126 121 111 105 84 70 71 50 41 55 34 18 36 31
295 301 294 290 299 300 287 308 288 263 252 243 227 252 210 174 163 158 153 140 141 153 151 146 144 143 140 136 119 122 128 123 121 116 111 115 123 119 78 85 67 16 39 47
271 298 298 302 309 300 295 291 273 267 260 266 248 244 209 174 165 155 144 135 137 140 141 141 144 140 137 131 124 124 126 115 115 122 130 121 84 90 78 80 71 39 42 37
239 255 297 299 281 271 276 271 258 256 255 256 241 229 182 161 158 138 124 122 121 123 122 125 130 129 126 120 128 135 127 118 117 109 111 110 98 90 73 56 52 32 40 25
222 220 211 265 274 257 269 277 270 239 221 240 207 193 134 109 106 127 126 124 122 110 115 123 120 120 123 126 130 128 113 103 103 106 99 105 124 127 118 97 74 49 43 25
258 238 187 239 285 285 272 267 274 291 285 278 226 161 126 120 112 112 119 122 124 117 116 122 122 124 124 120 126 126 119 124 119 119 113 93 93 107 113 118 94 72 61 34
310 304 160 201 259 281 284 277 273 279 285 283 226 130 141 133 126 120 125 124 122 123 127 128 125 126 118 116 108 104 119 131 127 129 128 122 104 85 92 89 80 78 69 58
304 291 253 205 225 239 265 290 295 278 294 289 256 215 177 155 150 141 133 126 128 131 131 129 120 117 116 110 101 101 102 127 141 129 127 114 115 113 96 83 83 90 79 66
286 274 252 213 220 258 246 253 266 272 264 281 295 12 50 130 142 142 136 130 127 127 128 124 120 113 104 98 94 91 102 116 130 115 117 118 116 121 119 101 90 85 89 93
290 279 260 238 223 243 261 268 273 282 290 285 284 311 43 82 98 103 112 115 123 126 120 114 109 109 107 102 96 86 67 80 89 113 109 108 96 100 118 116 114 106 102 119
322 281 272 229 202 210 246 267 273 274 276 277 277 180 76 68 79 82 95 103 116 124 118 109 105 109 112 110 107 94 65 58 64 76 103 98 99 103 105 109 116 127 139 138
280 274 277 285 308 294 273 277 278 277 273 282 274 241 134 75 90 92 101 113 118 124 126 122 122 121 123 130 111 94 77 65 61 66 104 118 122 127 124 104 90 143 164 145
257 271 279 282 288 285 277 276 278 279 285 285 291 290 333 51 62 94 112 113 118 120 123 133 135 130 133 118 101 101 104 102 89 70 75 119 144 126 113 101 246 180 194 246
261 274 280 272 263 266 273 272 268 268 278 280 281 299 24 56 49 64 95 102 113 124 132 144 144 133 135 128 127 129 152 171 146 107 78 70 70 91 128 174 262 242 267 259
262 273 278 272 265 267 262 268 261 263 286 286 289 322 16 33 25 32 65 76 88 98 105 114 161 159 171 178 154 158 157 130 128 115 93 72 49 293 203 222 249 248 245 253
276 279 277 276 269 259 234 14 331 290 308 321 325 3 5 16 17 56 55 49 56 69 69 102 112 121 138 121 103 120 107 104 135 109 85 47 335 301 278 258 266 273 270 252
257 269 274 272 272 261 242 338 323 280 285 340 335 342 354 5 3 66 45 43 40 72 70 82 93 87 90 97 85 101 106 130 77 63 30 349 330 314 300 283 289 287 280 266
236 251 262 270 270 266 355 18 343 297 256 22 357 353 355 340 297 14 42 42 47 60 59 52 71 81 80 74 67 90 76 78 67 18 337 335 336 312 288 278 280 294 291 276
215 227 239 259 265 268 23 12 340 273 342 15 354 354 348 339 351 40 38 46 58 62 62 65 72 74 69 68 65 70 45 21 19 28 18 0 359 352 333 330 315 310 307 300
259 257 248 260 261 260 51 27 27 10 14 5 5 13 10 10 17 35 37 48 60 62 62 64 74 72 63 57 58 48 33 19 29 31 6 352 354 339 348 345 324 316 305 291
268 285 282 260 274 27 48 2 8 10 1 3 1 10 2 358 28 35 42 58 67 66 59 63 71 68 63 57 52 54 46 47 25 357 341 346 344 340 343 341 324 315 319 311
293 320 296 277 258 293 327 352 354 360 3 7 5 4 6 7 21 32 50 56 70 75 63 62 57 52 36 45 43 40 42 51 29 339 335 346 349 342 339 338 329 337 339 323
307 303 282 276 288 301 322 338 342 0 360 357 0 4 1 14 15 18 37 57 72 67 66 63 47 18 23 41 33 35 27 11 341 325 328 335 336 334 338 358 353 339 299 281
269 269 261 273 313 303 301 332 341 337 336 339 335 339 353 7 26 40 45 56 72 82 80 73 60 34 28 30 18 26 23 355 334 320 319 323 325 328 333 344 346 349 311 314